www.pogodaiklimat.ru

Погода и климат >> Архив погоды >> Саудовская Аравия >> Sharorah


ПОГОДА в Sharorah

  • Прогноз погоды в Sharorah
  • Монитор погоды в Sharorah
  • Климат города

АРХИВ ПОГОДЫ в Sharorah

Время (UTC), дата Ветер
(напр.,м/с)
 
Видим.   Явления Облачность Т
(С)
Тd
(С)
f
(%)
Тe
(С)
Тes
(С)
Комфортность P
(гПа)
Po
(гПа)
Тmin
(С)
Tmax
(С)
R
(мм)
R24
(мм)
S
(см)
12 11.12 С 3 10 км ясно +18.2 +7.0 48 +19 +23 1022.9 938.8
15 11.12 СВ 2 10 км ясно +17.1 +7.0 51 +17 +17 1024.1 939.3
18 11.12 СВ 2 10 км ясно +14.1 +6.0 58 +14 +14 1024.7 940.2 +19.0
21 11.12 З 2 10 км ясно +9.0 +2.0 61 +8 +8 1023.7 939.9
00 12.12 штиль 0 10 км ясно +5.4 0.0 68 +5 +5 1023.5 939.4
03 12.12 штиль 0 10 км ясно +3.6 0.0 77 +3 +3 1024.7 940.1
06 12.12 ЮЗ 3 10 км ясно +7.7 -1.0 54 +6 +11 1026.2 941.6 +1.0
09 12.12 З 3 10 км ясно +18.5 +4.0 38 +19 +30 1022.5 939.0
12 12.12 штиль 0 10 км ясно +21.0 +7.0 40 +22 +29 комфорт 1021.0 937.5
15 12.12 С 2 10 км ясно +19.5 +7.0 44 +21 +21 комфорт 1022.4 938.3
18 12.12 СВ 2 10 км ясно +14.8 +4.0 48 +15 +15 1023.5 939.2 +23.3
21 12.12 штиль 0 10 км ясно +9.1 +2.0 61 +9 +9 1022.0 938.7
00 13.12 штиль 0 10 км ясно +5.3 0.0 69 +5 +5 1021.7 938.1
03 13.12 штиль 0 10 км ясно +3.3 -1.0 73 +3 +3 1023.0 938.8
06 13.12 ЮЗ 3 10 км ясно +10.2 +3.0 61 +9 +14 1023.7 939.8 +2.3
09 13.12 штиль 0 10 км ясно +20.6 +9.0 47 +22 +39 комфорт 1021.0 937.9
12 13.12 С 3 10 км ясно +22.7 +8.0 39 +24 +28 комфорт 1018.3 935.2
15 13.12 штиль 0 10 км ясно +19.6 +6.0 41 +20 +20 1019.4 935.5
18 13.12 штиль 0 10 км ясно +15.7 +2.0 40 +16 +16 1019.7 936.2 +25.0
21 13.12 В 3 10 км ясно +12.4 +1.0 46 +11 +11 1017.3 935.0
00 14.12 штиль 0 10 км ясно +6.5 0.0 63 +6 +6 1017.4 934.6
03 14.12 штиль 0 10 км ясно +3.9 -1.0 70 +3 +3 1019.2 935.4
06 14.12 Ю 2 10 км ясно +10.4 +2.0 56 +9 +15 1020.5 937.0 +3.0
09 14.12 ЮВ 3 10 км ясно +22.0 0.0 23 +21 +33 комфорт 1016.6 934.5
12 14.12 В 3 10 км ясно +24.6 0.0 20 +23 +28 комфорт 1013.8 931.5
15 14.12 СВ 3 10 км ясно +20.5 +2.0 29 +21 +21 комфорт 1016.0 932.6
18 14.12 В 3 10 км ясно +16.5 +3.0 40 +16 +16 1015.8 932.8 +26.0
21 14.12 штиль 0 10 км ясно +14.5 +3.0 46 +14 +14 1013.7 932.1
00 15.12 штиль 0 10 км ясно +12.4 0.0 42 +12 +12 1012.7 931.3
03 15.12 штиль 0 10 км ясно +7.4 -2.0 51 +7 +7 1015.1 932.3
06 15.12 ЮЗ 2 10 км ясно +13.2 +1.0 43 +13 +19 1016.8 934.1 +4.2
09 15.12 ЮЗ 3 10 км ясно +23.3 +1.0 23 +22 +33 комфорт 1013.5 932.1
12 15.12 ЮЗ 2 10 км ясно +26.7 +2.0 20 +25 +30 комфорт 1011.2 930.2
15 15.12 С 2 10 км ясно +24.2 +3.0 25 +23 +23 комфорт 1013.4 931.2
18 15.12 СВ 2 10 км ясно +20.1 +4.0 35 +21 +21 комфорт 1014.1 932.1 +27.7
21 15.12 СВ 2 10 км ясно +16.7 +4.0 43 +17 +17 1013.3 932.2
00 16.12 штиль 0 10 км ясно +14.1 +3.0 47 +14 +14 1013.1 932.2
03 16.12 Ю 2 10 км ясно +10.6 +3.0 59 +10 +10 1015.0 933.1
06 16.12 СЗ 3 10 км ясно +11.9 +4.0 58 +10 +15 1018.1 935.6 +7.0
09 16.12 С 5 10 км ясно +16.7 +3.0 40 +16 +23 1016.7 934.5
12 16.12 С 5 10 км ясно +18.6 +3.0 35 +19 +21 1015.4 933.2
15 16.12 С 3 10 км ясно +14.5 +1.0 40 +14 +14 1017.8 934.4
18 16.12 СВ 2 10 км ясно +12.7 +3.0 52 +12 +12 1019.8 936.1 +19.6
21 16.12 СВ 4 10 км ясно +12.4 +2.0 49 +11 +11 1019.4 936.4
00 17.12 штиль 0 10 км ясно +11.7 +1.0 48 +12 +12 1019.3 936.5
03 17.12 штиль 0 10 км ясно +9.1 -2.0 46 +9 +9 1022.0 938.0
06 17.12 штиль 0 9000 м мгла ясно +16.2 -2.0 29 +16 +24 1022.2 939.6 +6.5
09 17.12 СВ 4 10 км ясно +21.0 0.0 25 +21 +29 комфорт 1020.2 938.0
12 17.12 СВ 4 10 км ясно +21.7 +1.0 25 +21 +25 комфорт 1018.3 936.1
15 17.12 СВ 4 10 км ясно +20.3 +1.0 28 +21 +21 комфорт 1019.6 936.7
18 17.12 СВ 4 10 км ясно +16.4 +1.0 35 +16 +16 1021.3 938.6 +22.7
21 17.12 СВ 4 10 км ясно +14.3 +1.0 40 +13 +13 1020.7 938.4
00 18.12 штиль 0 10 км ясно +10.5 0.0 48 +10 +10 1023.3 938.7
03 18.12 штиль 0 10 км ясно +7.5 -1.0 55 +7 +7 1023.3 939.4
06 18.12 штиль 0 10 км ясно +13.1 -1.0 38 +13 +21 1024.8 941.4 +5.6
09 18.12 СВ 3 10 км ясно +19.6 +2.0 31 +20 +30 1023.3 940.6

 

Местоположение метеостанции Sharorah (Саудовская Аравия): широта 17.47 долгота 47.10 высота над уровнем моря 725 м.

В архиве по умолчанию представлена погода в Sharorah за последнюю неделю. Архивные данные за месяц целиком и за предыдущие месяцы, начиная с января 2011 года, Вы можете получить, выбрав интересующий диапазон дат из раскрывающегося списка и нажав кнопку "Ввод!".

Внимание! Время в таблицах - всемирное. Для получения местного времени необходимо прибавить поправку, которая в Sharorah равна 3 ч.

Смотрите также архив погоды в соседних городах и на ближайших метеорологических станциях:

Погода в Seiyoun (Йемен) (257 км)
Погода в Najran (Саудовская Аравия) (285 км)
Погода в Marib (Йемен) (295 км)
Погода в Sana (Йемен) (379 км)
Погода в Wadi Al Dawasir Airport (Саудовская Аравия) (389 км)
Погода в Riyan (Йемен) (395 км)
Погода в Hajjah (Йемен) (417 км)
Погода в Dhamar (Йемен) (431 км)
Погода в Khamis Mushait (Саудовская Аравия) (464 км)
Погода в Abha (Саудовская Аравия) (479 км)

Пояснения к столбцам:

Ветер - указаны скорость ветра в м/с - средняя за 10 мин, порывы в срок и между сроками (в фигурных скобках) и направление, откуда дует ветер: С - северный, СВ - северо-восточный, В - восточный, ЮВ - юго-восточный, Ю - южный, ЮЗ - юго-западный, З - западный, СЗ - северо-западный.
Видимость - горизонтальная дальность видимости в метрах или километрах. При видимости от 1 до 10 км при отсутствии осадков обычно наблюдается дымка, при ухудшении видимости до 1 км и менее - туман. В сухую погоду видимость может ухудшаться дымом, пылью или мглою.
Явления - указаны атмосферные явления, наблюдавшиеся в срок или в последний час перед сроком; фигурными скобками обозначены явления, наблюдавшиеся между сроками (за 1-3 часа до срока); квадратными скобками обозначены град или гололедные отложения с указанием их диаметра в мм.
Облачность - указаны через наклонную черту общая и нижняя облачность в баллах и высота нижней границы облаков в метрах; квадратными скобками обозначены формы облаков: Ci - перистые, Cs - перисто-слоистые, Cc - перисто-кучевые, Ac - высококучевые, As - высокослоистые, Sc - слоисто-кучевые, Ns - слоисто-дождевые, Cu - кучевые, Cb - кучево-дождевые. Подробнее классификацию облаков см. в Атласе облаков (PDF).
T - Температура воздуха - температура, измеренная на высоте 2 м над землей.
Td - Температура точки росы - температура, при понижении до которой содержащийся в воздухе водяной пар достигнет насыщения.
f - Относительная влажность воздуха - влажноcть воздуха, измеренная на высоте 2 м над землей.
Te - Эффективная температура - температура, которую ощущает одетый по сезону человек в тени. Характеристика душности погоды. При расчете учитывается влияние влажности воздуха и скорости ветра на теплоощущения человека.
Tes - Эффективная температура на солнце - температура, которую ощущает человек, с поправкой на солнечный нагрев. Характеристика знойности погоды. Зависит от высоты солнца над горизонтом, облачности и скорости ветра. Ночью, в пасмурную погоду, а также при ветре 12 м/с и более поправка равна нулю.
P - Атмосферное давление - приведенное к уровню моря атмосферное давление.
Po - Атмосферное давление - измеренное на уровне метеостанции атмосферное давление.
Tmin - Минимальная температура - минимум температуры воздуха на высоте 2 м над землей.
Tmax - Максимальная температура - максимум температуры воздуха на высоте 2 м над землей.
R - Количество осадков - Количество выпавших осадков за период времени, мм. При наведении курсора мыши на число - период времени, за который выпало указанное количество осадков.
R24 - Количество осадков - Количество выпавших осадков за 24 часа, мм.
S - Снежный покров - Высота снежного покрова, см. При наведении курсора мыши на число - состояние снежного покрова и степень покрытия местности в баллах.